2014-12-10 00:01:20 r, 17.41m,0000000009Hz,0000050603c,0000000.110s, 007.7C,00002191
2014-12-10 00:11:22 r, 17.45m,0000000009Hz,0000052247c,0000000.113s, 007.7C,00002191
2014-12-10 00:21:20 r, 17.30m,0000000010Hz,0000045558c,0000000.099s, 007.7C,00002191
2014-12-10 00:31:20 r, 17.37m,0000000009Hz,0000048762c,0000000.106s, 007.7C,00002191
2014-12-10 00:41:20 r, 17.11m,0000000012Hz,0000038145c,0000000.083s, 007.7C,00002191
2014-12-10 00:51:25 r, 17.14m,0000000012Hz,0000039576c,0000000.086s, 007.7C,00002191
2014-12-10 01:01:20 r, 17.05m,0000000013Hz,0000036420c,0000000.079s, 007.7C,00002191
2014-12-10 01:11:23 r, 17.05m,0000000013Hz,0000036442c,0000000.079s, 007.7C,00002191
2014-12-10 01:21:21 r, 17.02m,0000000013Hz,0000035445c,0000000.077s, 008.0C,00002191
2014-12-10 01:31:20 r, 17.04m,0000000013Hz,0000035904c,0000000.078s, 008.0C,00002191
2014-12-10 01:41:20 r, 16.97m,0000000014Hz,0000033545c,0000000.073s, 008.0C,00002191
2014-12-10 01:51:22 r, 16.91m,0000000015Hz,0000031902c,0000000.069s, 008.0C,00002191
2014-12-10 02:01:20 r, 16.96m,0000000014Hz,0000033416c,0000000.073s, 008.0C,00002191
2014-12-10 02:11:20 r, 16.86m,0000000016Hz,0000030442c,0000000.066s, 008.3C,00002191
2014-12-10 02:21:21 r, 16.95m,0000000014Hz,0000033193c,0000000.072s, 008.3C,00002191
2014-12-10 02:31:22 r, 16.94m,0000000014Hz,0000032629c,0000000.071s, 008.3C,00002191
2014-12-10 02:41:24 r, 16.95m,0000000014Hz,0000033057c,0000000.072s, 008.3C,00002191
2014-12-10 02:51:23 r, 16.94m,0000000014Hz,0000032572c,0000000.071s, 008.7C,00002191
2014-12-10 03:01:20 r, 16.92m,0000000015Hz,0000032160c,0000000.070s, 008.7C,00002191
2014-12-10 03:11:23 r, 16.89m,0000000015Hz,0000031229c,0000000.068s, 008.7C,00002191
2014-12-10 03:21:20 r, 16.87m,0000000015Hz,0000030810c,0000000.067s, 008.7C,00002191
2014-12-10 03:31:22 r, 16.89m,0000000015Hz,0000031405c,0000000.068s, 008.7C,00002191
2014-12-10 03:41:20 r, 16.90m,0000000014Hz,0000031577c,0000000.069s, 008.7C,00002191
2014-12-10 03:51:22 r, 16.89m,0000000015Hz,0000031231c,0000000.068s, 008.7C,00002191
2014-12-10 04:01:20 r, 16.92m,0000000014Hz,0000032064c,0000000.070s, 008.7C,00002191
2014-12-10 04:11:22 r, 16.87m,0000000015Hz,0000030752c,0000000.067s, 008.7C,00002191
2014-12-10 04:21:22 r, 16.90m,0000000015Hz,0000031378c,0000000.068s, 009.0C,00002191
2014-12-10 04:31:23 r, 16.94m,0000000015Hz,0000032367c,0000000.070s, 009.0C,00002191
2014-12-10 04:41:22 r, 16.98m,0000000013Hz,0000033579c,0000000.073s, 009.0C,00002191
2014-12-10 04:51:23 r, 16.94m,0000000014Hz,0000032535c,0000000.071s, 009.0C,00002191
2014-12-10 05:01:20 r, 17.00m,0000000013Hz,0000034389c,0000000.075s, 009.3C,00002191
2014-12-10 05:11:23 r, 17.00m,0000000013Hz,0000034461c,0000000.075s, 009.3C,00002191
2014-12-10 05:21:21 r, 17.06m,0000000013Hz,0000036122c,0000000.078s, 009.3C,00002191
2014-12-10 05:31:22 r, 17.06m,0000000013Hz,0000036422c,0000000.079s, 009.3C,00002191
2014-12-10 05:41:24 r, 17.09m,0000000013Hz,0000037315c,0000000.081s, 009.6C,00002191
2014-12-10 05:51:22 r, 17.14m,0000000012Hz,0000039407c,0000000.086s, 009.6C,00002191
2014-12-10 06:01:20 r, 17.21m,0000000011Hz,0000041628c,0000000.090s, 009.6C,00002191
2014-12-10 06:11:23 r, 17.20m,0000000011Hz,0000041421c,0000000.090s, 009.6C,00002191
2014-12-10 06:21:20 r, 17.22m,0000000010Hz,0000042223c,0000000.092s, 009.6C,00002191
2014-12-10 06:31:23 r, 17.25m,0000000010Hz,0000043325c,0000000.094s, 009.6C,00002191
2014-12-10 06:41:20 r, 17.26m,0000000010Hz,0000044187c,0000000.096s, 009.9C,00002191
2014-12-10 06:51:23 r, 17.27m,0000000010Hz,0000044312c,0000000.096s, 009.9C,00002191
2014-12-10 07:01:20 r, 17.16m,0000000011Hz,0000040312c,0000000.087s, 009.9C,00002191
2014-12-10 07:11:22 r, 16.61m,0000000019Hz,0000024087c,0000000.052s, 009.9C,00002191
2014-12-10 07:21:20 r, 15.50m,0000000053Hz,0000008647c,0000000.019s, 009.9C,00002191
2014-12-10 07:31:20 r, 13.85m,0000000243Hz,0000000000c,0000000.000s, 009.9C,00002191
2014-12-10 07:41:22 r, 12.11m,0000001213Hz,0000000000c,0000000.000s, 009.9C,00002191
2014-12-10 07:51:22 r, 10.23m,0000006827Hz,0000000000c,0000000.000s, 009.9C,00002191
2014-12-10 08:01:20 r, 08.63m,0000029910Hz,0000000000c,0000000.000s, 009.9C,00002191
2014-12-10 08:11:23 r, 07.50m,0000084899Hz,0000000000c,0000000.000s, 009.9C,00002191
2014-12-10 08:21:21 r, 06.70m,0000177144Hz,0000000000c,0000000.000s, 009.9C,00002191
2014-12-10 08:31:23 r, 06.19m,0000283383Hz,0000000000c,0000000.000s, 009.9C,00002191
2014-12-10 08:41:20 r, 00.00m,0000424918Hz,0000000000c,0000000.000s, 010.3C,00002191
2014-12-10 08:51:22 r, 00.00m,0000587724Hz,0000000000c,0000000.000s, 010.3C,00002191
2014-12-10 09:01:20 r, 00.00m,0000596530Hz,0000000000c,0000000.000s, 010.3C,00002191
2014-12-10 09:11:21 r, 00.00m,0000596584Hz,0000000000c,0000000.000s, 010.6C,00002191
2014-12-10 09:21:21 r, 00.00m,0000596530Hz,0000000000c,0000000.000s, 010.6C,00002191
2014-12-10 09:31:20 r, 00.00m,0000596451Hz,0000000000c,0000000.000s, 010.9C,00002191
2014-12-10 09:41:20 r, 00.00m,0000596522Hz,0000000000c,0000000.000s, 010.9C,00002191
2014-12-10 09:51:23 r, 00.00m,0000596474Hz,0000000000c,0000000.000s, 011.2C,00002191
2014-12-10 10:01:20 r, 00.00m,0000596473Hz,0000000000c,0000000.000s, 011.6C,00002191
2014-12-10 10:11:23 r, 00.00m,0000596329Hz,0000000000c,0000000.000s, 011.9C,00002191
2014-12-10 10:21:20 r, 00.00m,0000596422Hz,0000000000c,0000000.000s, 011.9C,00002191
2014-12-10 10:31:23 r, 00.00m,0000596306Hz,0000000000c,0000000.000s, 012.2C,00002191
2014-12-10 10:41:20 r, 00.00m,0000596328Hz,0000000000c,0000000.000s, 012.2C,00002191
2014-12-10 10:51:22 r, 00.00m,0000596289Hz,0000000000c,0000000.000s, 012.5C,00002191
2014-12-10 11:01:22 r, 00.00m,0000596243Hz,0000000000c,0000000.000s, 012.8C,00002191
2014-12-10 11:11:20 r, 00.00m,0000596268Hz,0000000000c,0000000.000s, 013.2C,00002191
2014-12-10 11:21:20 r, 00.00m,0000596189Hz,0000000000c,0000000.000s, 013.5C,00002191
2014-12-10 11:31:21 r, 00.00m,0000596219Hz,0000000000c,0000000.000s, 013.5C,00002191
2014-12-10 11:41:21 r, 00.00m,0000596154Hz,0000000000c,0000000.000s, 013.8C,00002191
2014-12-10 11:51:20 r, 00.00m,0000596124Hz,0000000000c,0000000.000s, 013.8C,00002191
2014-12-10 12:01:21 r, 00.00m,0000596201Hz,0000000000c,0000000.000s, 014.1C,00002191
2014-12-10 12:11:20 r, 00.00m,0000596224Hz,0000000000c,0000000.000s, 013.8C,00002191
2014-12-10 12:21:20 r, 00.00m,0000596156Hz,0000000000c,0000000.000s, 013.8C,00002191
2014-12-10 12:31:21 r, 00.00m,0000596094Hz,0000000000c,0000000.000s, 014.1C,00002191
2014-12-10 12:41:23 r, 00.00m,0000596176Hz,0000000000c,0000000.000s, 014.1C,00002191
2014-12-10 12:51:20 r, 00.00m,0000596139Hz,0000000000c,0000000.000s, 014.5C,00002191
2014-12-10 13:01:23 r, 00.00m,0000596012Hz,0000000000c,0000000.000s, 014.5C,00002191
2014-12-10 13:11:20 r, 00.00m,0000596097Hz,0000000000c,0000000.000s, 014.8C,00002191
2014-12-10 13:21:21 r, 00.00m,0000596119Hz,0000000000c,0000000.000s, 014.5C,00002191
2014-12-10 13:31:20 r, 00.00m,0000596125Hz,0000000000c,0000000.000s, 014.5C,00002191
2014-12-10 13:41:20 r, 00.00m,0000596113Hz,0000000000c,0000000.000s, 014.5C,00002191
2014-12-10 13:51:20 r, 00.00m,0000596204Hz,0000000000c,0000000.000s, 014.5C,00002191
2014-12-10 14:01:21 r, 00.00m,0000596072Hz,0000000000c,0000000.000s, 014.5C,00002191
2014-12-10 14:11:21 r, 00.00m,0000596083Hz,0000000000c,0000000.000s, 014.1C,00002191
2014-12-10 14:21:24 r, 00.00m,0000596172Hz,0000000000c,0000000.000s, 013.8C,00002191
2014-12-10 14:31:21 r, 00.00m,0000596087Hz,0000000000c,0000000.000s, 013.5C,00002191
2014-12-10 14:41:20 r, 00.00m,0000596207Hz,0000000000c,0000000.000s, 012.8C,00002191
2014-12-10 14:51:22 r, 00.00m,0000596196Hz,0000000000c,0000000.000s, 012.8C,00002191
2014-12-10 15:01:21 r, 00.00m,0000596190Hz,0000000000c,0000000.000s, 012.8C,00002191
2014-12-10 15:11:23 r, 00.00m,0000596323Hz,0000000000c,0000000.000s, 012.8C,00002191
2014-12-10 15:21:20 r, 00.00m,0000596295Hz,0000000000c,0000000.000s, 012.8C,00002191
2014-12-10 15:31:22 r, 00.00m,0000596231Hz,0000000000c,0000000.000s, 012.5C,00002191
2014-12-10 15:41:22 r, 00.00m,0000596309Hz,0000000000c,0000000.000s, 012.5C,00002191
2014-12-10 15:51:23 r, 00.00m,0000596357Hz,0000000000c,0000000.000s, 012.2C,00002191
2014-12-10 16:01:22 r, 00.00m,0000538742Hz,0000000000c,0000000.000s, 012.2C,00002191
2014-12-10 16:11:22 r, 05.90m,0000367395Hz,0000000000c,0000000.000s, 011.9C,00002191
2014-12-10 16:21:22 r, 06.48m,0000216244Hz,0000000000c,0000000.000s, 011.6C,00002191
2014-12-10 16:31:21 r, 07.39m,0000093184Hz,0000000000c,0000000.000s, 011.6C,00002191
2014-12-10 16:41:21 r, 08.70m,0000027952Hz,0000000000c,0000000.000s, 011.2C,00002191
2014-12-10 16:51:21 r, 10.34m,0000006181Hz,0000000000c,0000000.000s, 011.2C,00002191
2014-12-10 17:01:21 r, 12.08m,0000001253Hz,0000000000c,0000000.000s, 011.2C,00002191
2014-12-10 17:11:23 r, 13.88m,0000000237Hz,0000000000c,0000000.000s, 011.2C,00002191
2014-12-10 17:21:21 r, 15.69m,0000000044Hz,0000010316c,0000000.022s, 010.9C,00002191
2014-12-10 17:31:23 r, 17.31m,0000000010Hz,0000046121c,0000000.100s, 010.9C,00002191
2014-12-10 17:41:20 r, 18.27m,0000000004Hz,0000110528c,0000000.240s, 010.9C,00002191
2014-12-10 17:51:21 r, 18.94m,0000000003Hz,0000204236c,0000000.443s, 010.9C,00002191
2014-12-10 18:01:20 r, 18.91m,0000000002Hz,0000199579c,0000000.433s, 010.9C,00002191
2014-12-10 18:11:21 r, 19.27m,0000000002Hz,0000276517c,0000000.600s, 010.9C,00002191
2014-12-10 18:21:20 r, 19.45m,0000000001Hz,0000329202c,0000000.714s, 010.9C,00002191
2014-12-10 18:31:26 r, 19.88m,0000000001Hz,0000485939c,0000001.055s, 010.9C,00002191
2014-12-10 18:41:20 r, 19.88m,0000000001Hz,0000485780c,0000001.054s, 010.6C,00002191
2014-12-10 18:51:22 r, 20.23m,0000000000Hz,0000665219c,0000001.444s, 010.6C,00002191
2014-12-10 19:01:21 r, 20.28m,0000000001Hz,0000696978c,0000001.513s, 010.3C,00002191
2014-12-10 19:11:23 r, 20.26m,0000000001Hz,0000687656c,0000001.492s, 010.3C,00002191
2014-12-10 19:21:22 r, 20.25m,0000000001Hz,0000680688c,0000001.477s, 009.9C,00002191
2014-12-10 19:31:21 r, 20.23m,0000000001Hz,0000664464c,0000001.442s, 009.9C,00002191
2014-12-10 19:41:20 r, 20.23m,0000000000Hz,0000670074c,0000001.454s, 009.9C,00002191
2014-12-10 19:51:21 r, 20.21m,0000000001Hz,0000657586c,0000001.427s, 009.9C,00002191
2014-12-10 20:01:20 r, 20.19m,0000000000Hz,0000645372c,0000001.401s, 009.9C,00002191
2014-12-10 20:11:21 r, 20.20m,0000000000Hz,0000649217c,0000001.409s, 009.9C,00002191
2014-12-10 20:21:22 r, 20.20m,0000000001Hz,0000648260c,0000001.407s, 009.6C,00002191
2014-12-10 20:31:22 r, 20.20m,0000000001Hz,0000647921c,0000001.406s, 009.6C,00002191
2014-12-10 20:41:20 r, 20.18m,0000000001Hz,0000639208c,0000001.387s, 009.6C,00002191
2014-12-10 20:51:23 r, 20.15m,0000000001Hz,0000622321c,0000001.351s, 009.6C,00002191
2014-12-10 21:01:20 r, 20.11m,0000000001Hz,0000599725c,0000001.301s, 009.6C,00002191
2014-12-10 21:11:20 r, 20.07m,0000000001Hz,0000576226c,0000001.250s, 009.3C,00002191
2014-12-10 21:21:20 r, 19.98m,0000000001Hz,0000534851c,0000001.161s, 009.3C,00002191
2014-12-10 21:31:22 r, 19.90m,0000000001Hz,0000496089c,0000001.077s, 009.3C,00002191
2014-12-10 21:41:24 r, 19.81m,0000000001Hz,0000457982c,0000000.994s, 009.3C,00002191
2014-12-10 21:51:21 r, 19.73m,0000000001Hz,0000422233c,0000000.916s, 009.3C,00002191
2014-12-10 22:01:20 r, 19.65m,0000000001Hz,0000396507c,0000000.860s, 009.3C,00002191
2014-12-10 22:11:21 r, 19.60m,0000000001Hz,0000375395c,0000000.815s, 009.3C,00002191
2014-12-10 22:21:20 r, 19.54m,0000000001Hz,0000355287c,0000000.771s, 009.3C,00002191
2014-12-10 22:31:22 r, 19.48m,0000000001Hz,0000337002c,0000000.731s, 009.0C,00002191
2014-12-10 22:41:20 r, 19.42m,0000000001Hz,0000320614c,0000000.696s, 009.0C,00002191
2014-12-10 22:51:20 r, 19.40m,0000000001Hz,0000311984c,0000000.677s, 009.0C,00002191
2014-12-10 23:01:21 r, 19.34m,0000000001Hz,0000297757c,0000000.646s, 009.3C,00002191
2014-12-10 23:11:21 r, 19.31m,0000000002Hz,0000288885c,0000000.627s, 009.3C,00002191
2014-12-10 23:21:20 r, 19.26m,0000000002Hz,0000276366c,0000000.600s, 009.0C,00002191
2014-12-10 23:31:21 r, 19.21m,0000000002Hz,0000263800c,0000000.572s, 009.0C,00002191
2014-12-10 23:41:20 r, 19.17m,0000000001Hz,0000252435c,0000000.548s, 009.3C,00002191
2014-12-10 23:51:21 r, 19.11m,0000000002Hz,0000240089c,0000000.521s, 009.3C,00002191
